Flag for U.S.A. Weather past 2 weeks in Pasco, Washington, U.S.A.

Now
84 °F

Sunny.


Feels Like: 83 °F
Forecast: 57 / 87 °F
Wind: 3 mph from West

Location: Tri-Cities Airport

Current Time: Sep 22, 2014 at 3:50:04 PM

Latest Report: Sep 22, 2014 at 2:53 PM


Visibility: 10 mi

Pressure: 29.84 "Hg

Humidity: 35%

Dew point: 53 °F

Location of PascoLocation

Historic Weather in Pasco — Graph

°F

Pasco temperature yesterday

Maximum temperature yesterday: 87 °F (at 4:53 PM)
Minimum temperature yesterday: 52 °F (at 5:53 AM)
Average temperature yesterday: 68 °F

Past Weeks' High & Low Weather Summary

 TemperatureHumidityPressure
High91 °F (Sep 7, 4:53 PM)97% (Sep 8, 5:53 AM)30.43 "Hg (Sep 8, 5:53 AM)
Low39 °F (Sep 13, 4:53 AM)13% (Sep 8, 3:53 PM)29.59 "Hg (Sep 17, 6:53 PM)
Average65 °F55%29.92 "Hg
* Reported Sep 7 1:53 PM — Sep 22 1:53 PM, Pasco, Weather by CustomWeather, © 2014

Note: Actual official high and low records may vary slightly from our data, if they occured in-between our weather recording intervals... More about our weather records

Advertising

Pasco weather history for previous 24 hours

 ConditionsComfort  
Time TempWeatherWind HumidityBarometerVisibility
1:53 PM
Sep 22
80 °FSunny.5 mph39%29.86 "Hg10 mi
12:53 PM80 °FPassing clouds.14 mph41%29.87 "Hg10 mi
11:53 AM78 °FSunny.13 mph43%29.88 "Hg10 mi
10:53 AM79 °FSunny.14 mph42%29.88 "Hg10 mi
9:53 AM77 °FSunny.10 mph44%29.88 "Hg10 mi
8:53 AM75 °FSunny.15 mph48%29.87 "Hg10 mi
7:53 AM71 °FSunny.12 mph53%29.85 "Hg10 mi
6:53 AM64 °FClear.5 mph68%29.83 "Hg10 mi
5:53 AM61 °FClear.6 mph72%29.83 "Hg10 mi
4:53 AM54 °FClear.7 mph93%29.83 "Hg10 mi
3:53 AM60 °FClear.No wind78%29.82 "Hg10 mi
2:53 AM60 °FClear.No wind80%29.83 "Hg10 mi
1:53 AM60 °FClear.3 mph80%29.82 "Hg10 mi
12:53 AM58 °FClear.No wind90%29.82 "Hg10 mi
11:53 PM
Sep 21
62 °FClear.No wind80%29.81 "Hg10 mi
10:53 PM61 °FClear.5 mph87%29.80 "Hg10 mi
9:53 PM65 °FClear.No wind81%29.80 "Hg10 mi
8:53 PM68 °FClear.3 mph76%29.79 "Hg10 mi
7:53 PM72 °FSunny.No wind57%29.79 "Hg10 mi
6:53 PM82 °FSunny.No wind37%29.79 "Hg10 mi
5:53 PM87 °FSunny.5 mph31%29.80 "Hg10 mi
4:53 PM87 °FSunny.3 mph29%29.81 "Hg10 mi
3:53 PM86 °FSunny.7 mph33%29.82 "Hg10 mi
Weather by CustomWeather, © 2014

See weather overviewHow to use our weather pages